| time (UTC) | temp F | wind direction | speed knots | gust knots | rain 1hr in | rain 24hr in | rain mn in | humidity % | barometer mb |
| 20260507213529 | 68 | 47 | 1.7 | 3.5 | 0.00 | 0.00 | 0.00 | 35 | 1007.3 |
| 20260507212528 | 69 | 176 | 1.7 | 3.5 | 0.00 | 0.00 | 0.00 | 35 | 1007.1 |
| 20260507211525 | 69 | 129 | 2.6 | 6.1 | 0.00 | 0.00 | 0.00 | 33 | 1007.1 |
| 20260507210523 | 69 | 81 | 3.5 | 6.1 | 0.00 | 0.00 | 0.00 | 35 | 1007.3 |
| 20260507205521 | 69 | 82 | 4.3 | 7.8 | 0.00 | 0.00 | 0.00 | 36 | 1007.2 |
| 20260507204518 | 67 | 96 | 3.5 | 7.0 | 0.00 | 0.00 | 0.00 | 37 | 1007.3 |
| 20260507203516 | 68 | 6 | 2.6 | 5.2 | 0.00 | 0.00 | 0.00 | 36 | 1007.4 |
| 20260507202529 | 68 | 293 | 1.7 | 3.5 | 0.00 | 0.00 | 0.00 | 35 | 1007.4 |
| 20260507201527 | 70 | 215 | 2.6 | 7.0 | 0.00 | 0.00 | 0.00 | 33 | 1007.3 |
| 20260507200524 | 70 | 177 | 2.6 | 5.2 | 0.00 | 0.00 | 0.00 | 34 | 1007.3 |
| 20260507195542 | 68 | 130 | 3.5 | 6.1 | 0.00 | 0.00 | 0.00 | 35 | 1007.6 |
| 20260507194520 | 68 | 151 | 1.7 | 4.3 | 0.00 | 0.00 | 0.00 | 36 | 1007.8 |
| 20260507193518 | 67 | 46 | 1.7 | 3.5 | 0.00 | 0.00 | 0.00 | 35 | 1008.0 |
| 20260507192530 | 69 | 71 | 2.6 | 6.1 | 0.00 | 0.00 | 0.00 | 35 | 1008.0 |
| 20260507191548 | 70 | 171 | 2.6 | 5.2 | 0.00 | 0.00 | 0.00 | 35 | 1008.0 |
| 20260507190526 | 68 | 86 | 3.5 | 7.8 | 0.00 | 0.00 | 0.00 | 35 | 1008.1 |
| 20260507185523 | 67 | 103 | 2.6 | 4.3 | 0.00 | 0.00 | 0.00 | 35 | 1008.3 |
| 20260507184521 | 67 | 106 | 4.3 | 7.8 | 0.00 | 0.00 | 0.00 | 36 | 1008.5 |
| 20260507183519 | 66 | 104 | 5.2 | 10.4 | 0.00 | 0.00 | 0.00 | 37 | 1008.6 |
| 20260507182518 | 67 | 21 | 3.5 | 5.2 | 0.00 | 0.00 | 0.00 | 36 | 1008.6 |
| 20260507181549 | 67 | 5 | 6.1 | 10.4 | 0.00 | 0.00 | 0.00 | 37 | 1008.5 |
| 20260507180547 | 66 | 360 | 2.6 | 8.7 | 0.00 | 0.00 | 0.00 | 35 | 1008.8 |
| 20260507175525 | 66 | 3 | 2.6 | 5.2 | 0.00 | 0.00 | 0.00 | 37 | 1008.9 |
| 20260507174523 | 68 | 334 | 3.5 | 8.7 | 0.00 | 0.00 | 0.00 | 35 | 1009.3 |
| 20260507173520 | 66 | 316 | 2.6 | 6.1 | 0.00 | 0.00 | 0.00 | 38 | 1009.5 |
| 20260507172518 | 66 | 107 | 2.6 | 6.1 | 0.00 | 0.00 | 0.00 | 37 | 1009.5 |
| 20260507171531 | 65 | 77 | 6.1 | 10.4 | 0.00 | 0.00 | 0.00 | 37 | 1009.8 |
| 20260507170548 | 64 | 330 | 3.5 | 7.8 | 0.00 | 0.00 | 0.00 | 39 | 1009.9 |
| 20260507165606 | 64 | 266 | 3.5 | 6.1 | 0.00 | 0.00 | 0.00 | 38 | 1010.1 |
| 20260507164544 | 63 | 310 | 4.3 | 10.4 | 0.00 | 0.00 | 0.00 | 38 | 1010.4 |
| 20260507163521 | 63 | 342 | 2.6 | 8.7 | 0.00 | 0.00 | 0.00 | 38 | 1010.6 |
| 20260507162521 | 63 | 285 | 5.2 | 11.3 | 0.00 | 0.00 | 0.00 | 39 | 1010.7 |
| 20260507161517 | 63 | 321 | 5.2 | 11.3 | 0.00 | 0.00 | 0.00 | 38 | 1010.9 |
| 20260507160530 | 62 | 0 | 4.3 | 8.7 | 0.00 | 0.00 | 0.00 | 38 | 1011.0 |
| 20260507155528 | 61 | 18 | 3.5 | 8.7 | 0.00 | 0.00 | 0.00 | 38 | 1011.2 |
| 20260507154525 | 61 | 46 | 3.5 | 8.7 | 0.00 | 0.00 | 0.00 | 37 | 1011.3 |
| 20260507153523 | 61 | 27 | 5.2 | 9.6 | 0.00 | 0.00 | 0.00 | 39 | 1011.5 |
| 20260507152521 | 60 | 69 | 4.3 | 9.6 | 0.00 | 0.00 | 0.00 | 40 | 1011.6 |
| 20260507151519 | 59 | 36 | 5.2 | 11.3 | 0.00 | 0.00 | 0.00 | 40 | 1011.8 |
| 20260507150516 | 60 | 27 | 3.5 | 7.0 | 0.00 | 0.00 | 0.00 | 41 | 1011.9 |
| 20260507145529 | 59 | 354 | 6.1 | 12.2 | 0.00 | 0.00 | 0.00 | 42 | 1012.1 |
| 20260507144527 | 58 | 344 | 4.3 | 7.8 | 0.00 | 0.00 | 0.00 | 43 | 1012.2 |
| 20260507143524 | 58 | 346 | 5.2 | 12.2 | 0.00 | 0.00 | 0.00 | 44 | 1012.4 |
| 20260507142522 | 57 | 4 | 4.3 | 7.8 | 0.00 | 0.00 | 0.00 | 49 | 1012.4 |
| 20260507141520 | 56 | 34 | 4.3 | 7.0 | 0.00 | 0.00 | 0.00 | 49 | 1012.6 |
| 20260507140518 | 56 | 26 | 2.6 | 5.2 | 0.00 | 0.00 | 0.00 | 51 | 1012.8 |
| 20260507135530 | 55 | 30 | 3.5 | 7.0 | 0.00 | 0.00 | 0.00 | 51 | 1013.0 |
| 20260507134548 | 55 | 19 | 3.5 | 5.2 | 0.00 | 0.00 | 0.00 | 51 | 1013.2 |
| 20260507133546 | 55 | 35 | 3.5 | 5.2 | 0.00 | 0.00 | 0.00 | 53 | 1013.3 |
| 20260507132604 | 55 | 1 | 3.5 | 6.1 | 0.00 | 0.00 | 0.00 | 55 | 1013.5 |
| 20260507131521 | 55 | 18 | 2.6 | 5.2 | 0.00 | 0.00 | 0.00 | 55 | 1013.4 |
| 20260507130540 | 54 | 15 | 3.5 | 7.0 | 0.00 | 0.00 | 0.00 | 55 | 1013.3 |
| 20260507125517 | 54 | 24 | 2.6 | 4.3 | 0.00 | 0.00 | 0.00 | 55 | 1013.3 |
| 20260507124529 | 54 | 32 | 2.6 | 5.2 | 0.00 | 0.00 | 0.00 | 55 | 1013.2 |
| 20260507123527 | 54 | 40 | 2.6 | 4.3 | 0.00 | 0.00 | 0.00 | 55 | 1013.3 |
| 20260507122525 | 54 | 42 | 2.6 | 4.3 | 0.00 | 0.00 | 0.00 | 54 | 1013.2 |
| 20260507121522 | 53 | 31 | 2.6 | 6.1 | 0.00 | 0.00 | 0.00 | 55 | 1013.1 |
| 20260507120521 | 53 | 34 | 3.5 | 7.8 | 0.00 | 0.00 | 0.00 | 56 | 1013.0 |
| 20260507115518 | 53 | 29 | 2.6 | 3.5 | 0.00 | 0.00 | 0.00 | 58 | 1013.0 |
| 20260507114530 | 53 | 29 | 2.6 | 4.3 | 0.00 | 0.00 | 0.00 | 58 | 1012.9 |
| 20260507113528 | 54 | 22 | 1.7 | 3.5 | 0.00 | 0.00 | 0.00 | 62 | 1012.9 |
| 20260507112526 | 54 | 25 | 2.6 | 4.3 | 0.00 | 0.00 | 0.00 | 63 | 1012.8 |
| 20260507111523 | 54 | 40 | 3.5 | 4.3 | 0.00 | 0.00 | 0.00 | 64 | 1012.6 |
| 20260507110521 | 54 | 36 | 3.5 | 5.2 | 0.00 | 0.00 | 0.00 | 66 | 1012.5 |
| 20260507105538 | 54 | 32 | 3.5 | 5.2 | 0.00 | 0.00 | 0.00 | 66 | 1012.6 |
| 20260507104516 | 54 | 42 | 3.5 | 5.2 | 0.00 | 0.00 | 0.00 | 69 | 1012.4 |
| 20260507103529 | 54 | 44 | 2.6 | 3.5 | 0.00 | 0.00 | 0.00 | 72 | 1012.2 |
| 20260507102527 | 54 | 22 | 1.7 | 1.7 | 0.00 | 0.00 | 0.00 | 72 | 1012.1 |
| 20260507101524 | 55 | 19 | 1.7 | 2.6 | 0.00 | 0.00 | 0.00 | 70 | 1012.1 |
| 20260507100522 | 55 | 23 | 1.7 | 3.5 | 0.00 | 0.00 | 0.00 | 70 | 1011.9 |
| 20260507095520 | 55 | 14 | 2.6 | 3.5 | 0.00 | 0.00 | 0.00 | 70 | 1011.8 |
| 20260507094517 | 55 | 22 | 2.6 | 3.5 | 0.00 | 0.00 | 0.00 | 69 | 1011.9 |
| 20260507093530 | 55 | 24 | 2.6 | 3.5 | 0.00 | 0.00 | 0.00 | 69 | 1011.9 |
| 20260507092528 | 55 | 31 | 2.6 | 4.3 | 0.00 | 0.00 | 0.00 | 70 | 1011.7 |
| 20260507091526 | 55 | 20 | 1.7 | 3.5 | 0.00 | 0.00 | 0.00 | 71 | 1011.7 |
| 20260507090523 | 55 | 22 | 2.6 | 3.5 | 0.00 | 0.00 | 0.00 | 71 | 1011.6 |
| 20260507085521 | 55 | 19 | 1.7 | 2.6 | 0.00 | 0.00 | 0.00 | 70 | 1011.7 |
| 20260507084538 | 55 | 18 | 2.6 | 5.2 | 0.00 | 0.00 | 0.00 | 70 | 1011.6 |
| 20260507083516 | 55 | 35 | 2.6 | 3.5 | 0.00 | 0.00 | 0.00 | 70 | 1011.8 |
| 20260507082528 | 55 | 19 | 1.7 | 2.6 | 0.00 | 0.00 | 0.00 | 70 | 1011.8 |
| 20260507081526 | 55 | 0 | 1.7 | 5.2 | 0.00 | 0.00 | 0.00 | 70 | 1011.7 |
| 20260507080524 | 55 | 9 | 2.6 | 5.2 | 0.00 | 0.00 | 0.00 | 73 | 1011.6 |
| 20260507075521 | 55 | 18 | 0.9 | 1.7 | 0.00 | 0.00 | 0.00 | 71 | 1011.6 |
| 20260507074519 | 55 | 43 | 1.7 | 3.5 | 0.00 | 0.00 | 0.00 | 70 | 1011.3 |
| 20260507073517 | 55 | 16 | 1.7 | 2.6 | 0.00 | 0.00 | 0.00 | 70 | 1011.3 |
| 20260507072529 | 55 | 8 | 1.7 | 2.6 | 0.00 | 0.00 | 0.00 | 70 | 1011.1 |
| 20260507071527 | 55 | 12 | 1.7 | 2.6 | 0.00 | 0.00 | 0.00 | 70 | 1011.2 |
| 20260507070525 | 56 | 13 | 1.7 | 2.6 | 0.00 | 0.00 | 0.00 | 69 | 1011.2 |
| 20260507065522 | 56 | 10 | 1.7 | 2.6 | 0.00 | 0.00 | 0.00 | 68 | 1011.3 |
| 20260507064520 | 56 | 10 | 1.7 | 3.5 | 0.00 | 0.00 | 0.00 | 68 | 1011.3 |
| 20260507063518 | 56 | 17 | 2.6 | 5.2 | 0.00 | 0.00 | 0.00 | 68 | 1011.3 |
| 20260507062550 | 56 | 18 | 2.6 | 4.3 | 0.00 | 0.00 | 0.00 | 68 | 1011.5 |
| 20260507061528 | 56 | 16 | 1.7 | 3.5 | 0.00 | 0.00 | 0.00 | 69 | 1011.8 |
| 20260507060526 | 56 | 6 | 2.6 | 5.2 | 0.00 | 0.00 | 0.00 | 68 | 1012.0 |
| 20260507055524 | 56 | 2 | 3.5 | 5.2 | 0.00 | 0.00 | 0.00 | 67 | 1012.2 |
| 20260507054521 | 57 | 20 | 3.5 | 6.1 | 0.00 | 0.00 | 0.00 | 67 | 1011.9 |
| 20260507053519 | 57 | 26 | 2.6 | 5.2 | 0.00 | 0.00 | 0.00 | 68 | 1011.9 |
| 20260507052516 | 57 | 16 | 2.6 | 5.2 | 0.00 | 0.00 | 0.00 | 67 | 1011.8 |
| 20260507051549 | 57 | 19 | 2.6 | 6.1 | 0.00 | 0.00 | 0.00 | 68 | 1011.5 |
| 20260507050547 | 57 | 13 | 5.2 | 7.8 | 0.00 | 0.00 | 0.00 | 68 | 1011.5 |
| 20260507045544 | 57 | 2 | 4.3 | 7.0 | 0.00 | 0.00 | 0.00 | 71 | 1011.6 |
| 20260507044522 | 58 | 12 | 4.3 | 8.7 | 0.00 | 0.00 | 0.00 | 73 | 1011.4 |
| 20260507043520 | 58 | 28 | 3.5 | 6.1 | 0.00 | 0.00 | 0.00 | 73 | 1011.2 |
| 20260507042517 | 58 | 28 | 3.5 | 6.1 | 0.00 | 0.00 | 0.00 | 73 | 1010.6 |
| 20260507041530 | 58 | 33 | 4.3 | 7.8 | 0.00 | 0.00 | 0.00 | 72 | 1010.9 |
| 20260507040548 | 58 | 44 | 3.5 | 5.2 | 0.00 | 0.00 | 0.00 | 72 | 1011.1 |
| 20260507035525 | 59 | 26 | 4.3 | 7.8 | 0.00 | 0.00 | 0.00 | 72 | 1010.9 |
| 20260507034523 | 59 | 44 | 1.7 | 3.5 | 0.00 | 0.00 | 0.00 | 71 | 1010.7 |
| 20260507033521 | 59 | 39 | 2.6 | 5.2 | 0.00 | 0.00 | 0.00 | 71 | 1011.2 |
| 20260507032520 | 60 | 36 | 3.5 | 6.1 | 0.00 | 0.00 | 0.00 | 70 | 1011.3 |
| 20260507031516 | 60 | 19 | 4.3 | 8.7 | 0.00 | 0.00 | 0.00 | 70 | 1011.1 |
| 20260507030529 | 60 | 23 | 3.5 | 7.0 | 0.00 | 0.00 | 0.00 | 70 | 1010.6 |
| 20260507025527 | 60 | 54 | 3.5 | 5.2 | 0.00 | 0.00 | 0.00 | 70 | 1010.7 |
| 20260507024524 | 61 | 35 | 4.3 | 10.4 | 0.00 | 0.00 | 0.00 | 69 | 1011.0 |
| 20260507023522 | 61 | 18 | 4.3 | 7.8 | 0.00 | 0.00 | 0.00 | 69 | 1010.9 |
| 20260507022520 | 61 | 18 | 3.5 | 6.1 | 0.00 | 0.00 | 0.00 | 70 | 1010.8 |
| 20260507021538 | 61 | 25 | 3.5 | 5.2 | 0.00 | 0.00 | 0.00 | 70 | 1010.1 |
| 20260507020530 | 62 | 53 | 4.3 | 8.7 | 0.00 | 0.00 | 0.00 | 69 | 1010.1 |
| 20260507015548 | 62 | 49 | 2.6 | 5.2 | 0.00 | 0.00 | 0.00 | 69 | 1010.4 |
| 20260507014526 | 62 | 33 | 2.6 | 6.1 | 0.00 | 0.00 | 0.00 | 69 | 1010.4 |
| 20260507013524 | 63 | 18 | 4.3 | 7.8 | 0.00 | 0.00 | 0.00 | 69 | 1010.2 |
| 20260507012521 | 63 | 17 | 2.6 | 4.3 | 0.00 | 0.00 | 0.00 | 71 | 1010.0 |
| 20260507011519 | 63 | 46 | 4.3 | 8.7 | 0.00 | 0.00 | 0.00 | 70 | 1009.8 |
| 20260507010537 | 63 | 25 | 3.5 | 5.2 | 0.00 | 0.00 | 0.00 | 71 | 1009.8 |
| 20260507005529 | 64 | 38 | 3.5 | 6.1 | 0.00 | 0.00 | 0.00 | 73 | 1009.8 |
| 20260507004547 | 64 | 55 | 4.3 | 7.0 | 0.00 | 0.00 | 0.00 | 74 | 1009.7 |
| 20260507003525 | 64 | 31 | 3.5 | 4.3 | 0.00 | 0.00 | 0.00 | 74 | 1009.8 |
| 20260507002522 | 64 | 22 | 3.5 | 5.2 | 0.00 | 0.00 | 0.00 | 74 | 1009.5 |
| 20260507001540 | 64 | 35 | 3.5 | 5.2 | 0.00 | 0.00 | 0.00 | 76 | 1009.4 |
| 20260507000518 | 64 | 49 | 3.5 | 6.1 | 0.00 | 0.00 | 0.00 | 78 | 1009.5 |
| 20260506235530 | 64 | 19 | 3.5 | 6.1 | 0.00 | 0.00 | 0.00 | 79 | 1009.4 |
| 20260506234528 | 65 | 27 | 3.5 | 6.1 | 0.00 | 0.00 | 0.00 | 78 | 1009.2 |
| 20260506233526 | 67 | 9 | 4.3 | 7.0 | 0.00 | 0.00 | 0.00 | 72 | 1008.9 |
| 20260506232524 | 67 | 19 | 4.3 | 7.0 | 0.00 | 0.00 | 0.00 | 70 | 1008.8 |
| 20260506231541 | 68 | 45 | 4.3 | 9.6 | 0.00 | 0.00 | 0.00 | 70 | 1008.5 |
| 20260506230519 | 69 | 11 | 2.6 | 4.3 | 0.00 | 0.00 | 0.00 | 70 | 1008.6 |
| 20260506225517 | 69 | 6 | 5.2 | 7.8 | 0.00 | 0.00 | 0.00 | 69 | 1008.3 |
| 20260506224550 | 69 | 11 | 3.5 | 7.8 | 0.00 | 0.00 | 0.00 | 72 | 1008.2 |
| 20260506223527 | 70 | 38 | 3.5 | 6.1 | 0.00 | 0.00 | 0.00 | 74 | 1008.0 |
| 20260506222525 | 70 | 51 | 4.3 | 6.1 | 0.00 | 0.00 | 0.00 | 72 | 1007.8 |
| 20260506221523 | 71 | 48 | 3.5 | 5.2 | 0.00 | 0.00 | 0.00 | 71 | 1007.6 |
| 20260506220522 | 71 | 60 | 4.3 | 7.8 | 0.00 | 0.00 | 0.00 | 69 | 1007.6 |
| 20260506215519 | 72 | 46 | 2.6 | 3.5 | 0.00 | 0.00 | 0.00 | 68 | 1007.5 |
| 20260506214516 | 72 | 40 | 3.5 | 6.1 | 0.00 | 0.00 | 0.00 | 66 | 1007.2 |